Campo, CA

6:00 AM PDT on August 23, 2017 (GMT -0700)
Campo

Weather History for KCZZ - February, 2014

Change the Weather History Date:

Wednesday, February 5, 2014

  Actual Average Record
Temperature  
Mean Temperature 48 °F 49 °F  
Max Temperature 57 °F 63 °F 85 °F (1963)
Min Temperature 38 °F 35 °F 17 °F (1955)
Degree Days  
Heating Degree Days 17 16  
Month to date heating degree days 111 80  
Since 1 July heating degree days 1598 1696  
Cooling Degree Days 0 0  
Month to date cooling degree days 0 0  
Year to date cooling degree days 0 0  
Moisture  
Dew Point 37 °F    
Average Humidity 74    
Maximum Humidity 100    
Minimum Humidity 47    
Precipitation  
Precipitation 0.00 in 0.10 in 1.35 in (1976)
Month to date precipitation 0.21 0.51  
Year to date precipitation 0.29 3.49  
Since 1 July precipitation 4.48  
Snow  
Snow 0.00 in - - ()
Month to date snowfall 0.0  
Year to date snowfall 0.0  
Snow Depth 0.00 in    
Sea Level Pressure  
Sea Level Pressure 29.98 in    
Wind  
Wind Speed 5 mph (ENE)    
Max Wind Speed 18 mph    
Max Gust Speed 22 mph    
T = Trace of Precipitation, MM = Missing Value Source: NWS Daily Summary

Daily Weather History Graph

Daily Weather History Graph

Search for Another Location

Airport or City:

Trip Planner

Search our weather history database for the weather conditions in past years. The results will help you decide how hot, cold, wet, or windy it might be!

Date:

Astronomy

Feb. 05, 2014 Rise Set
Actual Time 6:37 AM PST 5:22 PM PST
Civil Twilight 6:11 AM PST 5:48 PM PST
Nautical Twilight 5:42 AM PST 6:17 PM PST
Astronomical Twilight 5:13 AM PST 6:46 PM PST
Moon 10:18 AM PST (2/5) 11:56 PM PST (2/5)
Length of Visible Light 11h 36m
Length of Day
10h 45m
Waxing Crescent, 40% of the Moon is Illuminated
Feb 5
Waxing Crescent
Feb 6
First Quarter
Feb 14
Full
Feb 22
Last Quarter
Mar 1
New

Hourly Weather History & Observations

Time (PST) Temp. Windchill Dew Point Humidity Pressure Visibility Wind Dir Wind Speed Gust Speed Precip Events Conditions
12:52 AM 43.0 °F - 39.9 °F 89% 30.00 in - Calm Calm - N/A   Unknown
1:52 AM 43.0 °F - 39.9 °F 89% 29.99 in - Calm Calm - N/A   Unknown
2:52 AM 43.0 °F - 39.9 °F 89% 29.97 in - Calm Calm - N/A   Unknown
3:52 AM 39.9 °F - 39.0 °F 97% 29.97 in - Calm Calm - N/A   Unknown
4:52 AM 41.0 °F - 39.0 °F 93% 29.97 in - Calm Calm - N/A   Unknown
5:52 AM 39.9 °F - 37.9 °F 93% 29.99 in - Calm Calm - N/A   Unknown
6:52 AM 37.9 °F 32.7 °F 36.0 °F 93% 30.01 in - ENE 6.9 mph - N/A   Unknown
7:52 AM 41.0 °F 39.0 °F 37.0 °F 86% 30.03 in - ENE 3.5 mph - N/A   Unknown
8:52 AM 45.0 °F 41.8 °F 37.0 °F 74% 30.02 in - East 5.8 mph - N/A   Unknown
9:52 AM 46.9 °F - 35.1 °F 63% 30.03 in - Variable 3.5 mph - N/A   Unknown
10:52 AM 50.0 °F - 37.0 °F 61% 30.01 in - East 4.6 mph - N/A   Unknown
11:52 AM 53.1 °F - 36.0 °F 52% 29.96 in - West 3.5 mph - N/A   Unknown
12:52 PM 55.9 °F - 37.0 °F 49% 29.92 in - SW 13.8 mph 19.6 mph N/A   Unknown
1:52 PM 55.0 °F - 36.0 °F 49% 29.92 in - SSW 13.8 mph - N/A   Unknown
2:52 PM 55.9 °F - 36.0 °F 47% 29.91 in - WSW 10.4 mph - N/A   Unknown
3:52 PM 55.9 °F - 35.1 °F 45% 29.93 in - WSW 9.2 mph - N/A   Unknown
4:52 PM 53.1 °F - 39.0 °F 59% 29.93 in - WSW 9.2 mph - N/A   Unknown
5:52 PM 48.0 °F - 39.0 °F 71% 29.96 in - Calm Calm - N/A   Unknown
6:52 PM 46.0 °F - 39.9 °F 79% 29.99 in - Calm Calm - N/A   Unknown
7:52 PM 42.1 °F - 39.0 °F 89% 30.00 in - Calm Calm - N/A   Unknown
8:52 PM 37.9 °F 35.5 °F 36.0 °F 93% 30.01 in - NNE 3.5 mph - N/A   Unknown
9:52 PM 36.0 °F 31.1 °F 34.0 °F 93% 30.01 in - NE 5.8 mph - N/A   Unknown
10:52 PM 36.0 °F 33.3 °F 33.1 °F 89% 30.01 in - ENE 3.5 mph - N/A   Unknown
11:52 PM 34.0 °F 28.0 °F 32.0 °F 92% 30.01 in - ENE 6.9 mph - N/A   Unknown